FW4639 Weather Reports


time (UTC)temp
C
wind
direction
speed
KPH
gust
KPH
rain 1hr
cm
rain 24hr
cm
rain mn
cm
humidity
%
barometer
mb
20260510190018 27 212 0.0 1.6 0.00 0.00 0.00 38 1015.2
20260510184519 27 70 0.0 1.6 0.00 0.00 0.00 38 1015.3
20260510183017 27 250 0.0 1.6 0.00 0.00 0.00 36 1015.5
20260510181515 28 209 0.0 0.0 0.00 0.00 0.00 37 1015.5
20260510180015 27 109 0.0 6.4 0.00 0.00 0.00 40 1015.6
20260510174514 28 218 0.0 0.0 0.00 0.00 0.00 36 1015.7
20260510173013 28 7 0.0 11.3 0.00 0.00 0.00 37 1015.7
20260510171511 28 58 0.0 1.6 0.00 0.00 0.00 38 1015.8
20260510170009 28 286 0.0 1.6 0.00 0.00 0.00 39 1015.8
20260510164508 28 36 0.0 3.2 0.00 0.00 0.00 40 1016.0
20260510163007 27 303 0.0 1.6 0.00 0.00 0.00 44 1016.1
20260510161504 27 343 0.0 6.4 0.00 0.00 0.00 43 1016.1
20260510160101 27 345 0.0 3.2 0.00 0.00 0.00 48 1016.2
20260510154601 26 165 0.0 1.6 0.00 0.00 0.00 52 1016.4
20260510153055 25 252 0.0 0.0 0.00 0.00 0.00 54 1016.6
20260510151554 26 55 0.0 3.2 0.00 0.00 0.00 54 1016.4
20260510150055 25 94 0.0 1.6 0.00 0.00 0.00 57 1016.4
20260510144606 25 89 0.0 1.6 0.00 0.00 0.00 55 1016.3
20260510143056 24 257 0.0 0.0 0.00 0.00 0.00 62 1016.3
20260510141541 23 257 0.0 3.2 0.00 0.00 0.00 65 1016.3
20260510140039 22 259 0.0 3.2 0.00 0.00 0.00 68 1016.4
20260510134543 22 51 0.0 1.6 0.00 0.00 0.00 73 1016.4
20260510133032 21 84 0.0 3.2 0.00 0.00 0.00 78 1016.2
20260510131527 20 335 0.0 6.4 0.00 0.00 0.00 83 1016.2
20260510130023 19 68 0.0 0.0 0.00 0.00 0.00 91 1015.9
20260510124519 17 68 0.0 0.0 0.00 0.00 0.00 96 1015.7
20260510123015 16 69 0.0 0.0 0.00 0.00 0.00 96 1015.7
20260510121514 16 68 0.0 0.0 0.00 0.00 0.00 97 1015.5
20260510120015 16 68 0.0 0.0 0.00 0.00 0.00 97 1015.4
20260510114512 16 69 0.0 0.0 0.00 0.00 0.00 97 1015.3
20260510113010 16 68 0.0 0.0 0.00 0.00 0.00 97 1015.1
20260510111508 15 68 0.0 0.0 0.00 0.00 0.00 97 1014.8
20260510110010 15 69 0.0 0.0 0.00 0.00 0.00 97 1014.6
20260510104505 15 69 0.0 0.0 0.00 0.00 0.00 96 1014.5
20260510103003 15 68 0.0 0.0 0.00 0.00 0.00 96 1014.4
20260510101601 15 69 0.0 0.0 0.00 0.00 0.00 96 1014.1
20260510094558 15 68 0.0 0.0 0.00 0.00 0.00 96 1013.7
20260510093054 15 69 0.0 0.0 0.00 0.00 0.00 96 1013.4
20260510091555 15 68 0.0 0.0 0.00 0.00 0.00 96 1013.3
20260510090052 15 68 0.0 0.0 0.00 0.00 0.00 96 1013.2
20260510084550 15 68 0.0 0.0 0.00 0.00 0.00 96 1013.2
20260510083049 15 69 0.0 0.0 0.00 0.00 0.00 96 1013.1
20260510081601 15 69 0.0 0.0 0.00 0.00 0.00 95 1013.0
20260510080051 16 68 0.0 0.0 0.00 0.00 0.00 95 1013.0
20260510074547 16 68 0.0 0.0 0.00 0.00 0.00 95 1013.0
20260510073045 16 69 0.0 0.0 0.00 0.00 0.00 95 1012.8
20260510071544 16 68 0.0 0.0 0.00 0.00 0.00 95 1012.6
20260510070044 16 68 0.0 0.0 0.00 0.00 0.00 95 1012.6
20260510064543 16 68 0.0 0.0 0.00 0.00 0.00 95 1012.7
20260510063041 16 68 0.0 0.0 0.00 0.00 0.00 94 1012.8
20260510061539 16 68 0.0 0.0 0.00 0.00 0.00 94 1012.6
20260510060047 16 68 0.0 0.0 0.00 0.00 0.00 93 1012.8
20260510054536 16 69 0.0 0.0 0.00 0.00 0.00 93 1013.0
20260510053034 16 68 0.0 0.0 0.00 0.00 0.00 93 1013.0
20260510051536 16 68 0.0 0.0 0.00 0.00 0.00 93 1013.1
20260510050030 17 68 0.0 0.0 0.00 0.00 0.00 93 1013.3
20260510044531 17 69 0.0 0.0 0.00 0.00 0.00 93 1013.5
20260510043027 17 68 0.0 0.0 0.00 0.00 0.00 93 1013.4
20260510041530 17 69 0.0 0.0 0.00 0.00 0.00 93 1013.3
20260510040025 17 68 0.0 0.0 0.00 0.00 0.00 93 1013.4
20260510034524 17 69 0.0 0.0 0.00 0.00 0.00 94 1013.1
20260510033024 17 69 0.0 0.0 0.00 0.00 0.00 94 1013.0
20260510031629 17 69 0.0 0.0 0.00 0.00 0.00 94 1013.0
20260510030023 16 68 0.0 0.0 0.00 0.00 0.00 93 1012.9
20260510024521 17 69 0.0 0.0 0.00 0.00 0.00 92 1012.9
20260510023036 17 69 0.0 0.0 0.00 0.00 0.00 92 1012.7
20260510021521 17 68 0.0 0.0 0.00 0.00 0.00 92 1012.8
20260510020020 17 68 0.0 0.0 0.00 0.00 0.00 91 1012.6
20260510014521 17 68 0.0 0.0 0.00 0.00 0.00 90 1012.7
20260510013019 17 68 0.0 0.0 0.00 0.00 0.00 90 1012.4
20260510011524 18 68 0.0 0.0 0.00 0.00 0.00 89 1012.1
20260510010024 18 68 0.0 0.0 0.00 0.00 0.00 87 1011.9
20260510004518 18 68 0.0 0.0 0.00 0.00 0.00 87 1011.8
20260510003018 18 69 0.0 0.0 0.00 0.00 0.00 85 1011.8
20260510001518 19 69 0.0 0.0 0.00 0.00 0.00 84 1011.8
20260510000017 20 68 0.0 0.0 0.00 0.00 0.00 82 1011.7
20260509234519 20 68 0.0 0.0 0.00 0.00 0.00 80 1011.7
20260509233015 21 68 0.0 0.0 0.00 0.00 0.00 78 1011.3
20260509231515 21 69 0.0 0.0 0.00 0.00 0.00 77 1011.2
20260509230015 21 68 0.0 0.0 0.00 0.00 0.00 76 1011.0
20260509224513 22 68 0.0 0.0 0.00 0.00 0.00 75 1010.9
20260509223014 22 56 0.0 0.0 0.00 0.00 0.00 74 1010.9
20260509221512 22 68 0.0 0.0 0.00 0.00 0.00 75 1011.0
20260509220012 22 65 0.0 0.0 0.00 0.00 0.00 75 1011.1
20260509214511 22 130 0.0 0.0 0.00 0.00 0.00 74 1011.0
20260509213010 22 131 0.0 0.0 0.00 0.00 0.00 73 1010.9
20260509211513 22 140 0.0 0.0 0.00 0.00 0.00 72 1010.9
20260509210009 22 110 0.0 0.0 0.00 0.00 0.00 72 1010.8
20260509204508 22 66 0.0 0.0 0.00 0.00 0.00 74 1010.7
20260509203015 21 67 0.0 0.0 0.00 0.00 0.00 74 1010.8
20260509201505 21 74 0.0 0.0 0.00 0.00 0.00 75 1011.1
20260509200004 21 74 0.0 1.6 0.00 0.00 0.00 75 1011.2
20260509194502 21 70 0.0 1.6 0.00 0.00 0.00 75 1011.4
20260509193001 21 111 0.0 1.6 0.00 0.00 0.00 74 1011.6
20260509191601 21 112 0.0 0.0 0.00 0.00 0.00 73 1011.7